sat.trackr.live / text

‹ back to catalog

STARLINK-34702

NORAD 64908 · 2025-157E

PAYLOAD ACTIVE UNKNOWN

§ Identity

Operator
Country
US
Launch date
2025-07-26
Launch site
AFETR
Launch vehicle
Mass (kg)
RCS (m²)

Purposes: comms

External: N2YO · Heavens-Above · Gunter

§ Orbital elements

Epoch: 2026-05-24T22:46:19.432128Z

Period
94.01 min
Inclination
53.1607°
Eccentricity
0.0000880
Mean motion
15.31714731 rev/d
Perigee alt
470.1 km
Apogee alt
471.3 km
Semi-major
6,848.8 km
B*
4.0997e-4
RAAN
351.1511°
Arg perigee
107.1428°
Mean anomaly
252.9669°
Rev number
4,780

§ Raw data

STARLINK-347021 64908U 25157E   26144.94883602  .00012384  00000+0  40997-3 0  99932 64908  53.1607 351.1511 0000880 107.1428 252.9669 15.31714731 47808

JSON: /api/v1/satellites/64908 · /tle

For live sub-satellite position, see the globe view (requires WebGL).

§ Visibility from observer

Set your observer location to see the next 7 days of passes ≥ 10°. The values pass through the URL so the page stays shareable.

No JS? Fill the form by hand. The geolocation button needs JavaScript.